Weather in Gurovo

Russia / Omsk Oblast     56°18′06″N   75°08′40″E
temp.,
°C
wind,
m/s
gust,
m/s
humid.,
%
clouds,
%
prec.,
mm/h
press.,
hPa
HPBL,
m
8 march, mon
mon800:00−7se81694100 2.1 1006658
03:000ssw101797100 3.7 10001102
06:000ssw101797100 5.8 9971032
09:000sw111796100 1.6 9971213
12:00−8wnw71188100 2.6 1001684
15:00−8wnw71188100 0.1 1004820
18:00−9w61089100 0.2 1009837
21:00−12wsw51093100 0.1 1012449
9 march, tue
tue900:00−13wsw51193100 0.1 1015346
03:00−16ssw4109465 0.0 1016234
06:00−14ssw5129379 0.1 1016436
09:00−14ssw51194100 0.1 1016421
12:00−11ssw61093100 0.1 1016492
15:00−9ssw61192100 0.1 1015550
18:00−9ssw71391100 0.3 1013646
21:00−7ssw81691100 0.2 1012773
10 march, wed
wed1000:00−9sw71590100 0.3 1011636
03:00−10sw51294100 0.1 1012382
06:00−11sw3896100 0.1 1013202
09:00−11sw2597100 0.0 1013138
12:00−8sse2393100 0.1 1012258
15:00−7ese4594100 0.0 1009322
18:00−7e4895100 2.1 1004437
21:00−8e4995100 1.7 1000472
11 march, thu
thu1100:00−8n2496100 2.8 997145
03:00−9w4796100 0.6 998201
06:00−10wsw489695 0.8 1001204
09:00−10sw499485 0.2 1004348
12:00−7sw589291 0.3 1006635
15:00−8sw71189100 0.3 1007767
18:00−11ssw51191100 0.4 1008659
21:00−13s3894100 0.1 1008208
12 march, fri
fri1200:00−14s2396100 0.1 100733
03:00−14sw229796 0.1 100724
06:00−16wsw5109498 0.3 1007373
09:00−19sw499597 0.1 1009388
12:00−17sw479199 0.1 1011560
15:00−15sw5789100 0.1 1012847
18:00−17wsw5993100 0.4 1014708
21:00−20w51095100 0.1 1017478